Погода в Успенке

Украина / Луганская область     48°23′38″N   39°09′12″E
темп.,
°C
ветер,
м/с
пор.,
м/с
влажн.,
%
обл.,
%
осадки,
мм/ч
давл.,
гПа
погр.,
м
18 мая, вт
вт1800:00+17юз378898 0.7 1007295
03:00+15ю3594100 0.7 1008132
06:00+15ююз3696100 0.8 1008287
09:00+15ююз3694100 1.8 1008357
12:00+21ююз6661100 0.2 10081457
15:00+22ююз6753100 0.3 10081906
18:00+19ююз6869100 0.1 1008926
21:00+14ю410835 0.1 1008232
19 мая, ср
ср1900:00+13ю410885 0.0 1008198
03:00+13ююв3887100 0.0 1008210
06:00+14юв3788100 0.1 1008249
09:00+15ю5786100 0.3 1008675
12:00+14юз2485100 3.9 1009352
15:00+15ю597999 4.3 1009833
18:00+17ююз7967100 0.4 10091036
21:00+13ююз7148297 0.4 1010649
20 мая, чт
чт2000:00+13ю61291100 0.2 1009701
03:00+13ююз611878 0.5 1009695
06:00+13ююз7128750 0.1 1010719
09:00+15юз8117211 0.1 1011979
12:00+18зюз81161100 0.1 10121622
15:00+21зюз7104556 0.1 10122339
18:00+18ююз3565100 0.0 1013104
21:00+15ю48775 0.1 1014124
21 мая, пт
пт2100:00+13ю227897 0.0 101422
03:00+13юв2286100 0.0 101411
06:00+14вюв248250 0.0 1015122
09:00+19в466488 0.0 1014576
12:00+23вюв7848100 0.0 1013992
15:00+24вюв7954100 0.0 1012985
18:00+23вюв5962100 0.0 1012554
21:00+18в358198 0.0 101268
22 мая, сб
сб2200:00+17вюв4148053 0.0 1011291
03:00+16вюв411750 0.0 1010259
06:00+15вюв310763 0.0 1011337
09:00+21юв6861100 0.0 1011571
12:00+26юв6753100 0.0 1011891
15:00+27юв6754100 0.0 10101051
18:00+24вюв1168100 0.0 101131
21:00+21в3873100 0.0 1010129